Yaogan 32 hao 01 zu 02 xing

operational
NORAD ID: 43643 Int'l Des: 2018-077 Owner: ZLZB Country: CN Constellation: yaogan
LEOCIRCULARRETROGRADESSO

About Yaogan 32 hao 01 zu 02 xing

Description loading...

Live Position

Loading 3D Globe...

Upcoming Passes

Altitude History

Altitude vs Time

uPlot chart will show altitude changes over time

Two-Line Element Set

1 43643U 18077B 26061.16354551 .00000651 00000-0 13623-3 0 9998
2 43643 98.1613 90.8949 0005676 182.0641 178.0538 14.63018157394188
Epoch: Mar 2, 2026 • Age: 40 hours

Current Status

Altitude 690.5 km
Velocity 7.51 km/s
Sub-Earth Point 29.33°N, 43.78°E
Launch Date Oct 9, 2018
Age 7.3 years
Type military

Technical Details

Classification Payload
Mass 500.00 kg
Dry Mass 500.00 kg
Total Mass 500.00 kg
Length 0.50 m
Diameter 0.50 m
Span 1.00 m
Shape Box + 2 Pan
Manufacturer SECM
Phase Status In Orbit
Owner/State ZLZB/CN

Large Constellations

Loading constellations...